TimePST,TemperatureF,Dew PointF,Humidity,Sea Level PressureIn,VisibilityMPH,Wind Direction,Wind SpeedMPH,Gust SpeedMPH,PrecipitationIn,Events,Conditions,WindDirDegrees,DateUTC
12:15 AM,24.8,17.6,74,30.31,10.0,Calm,Calm,-,N/A,,Clear,0,2014-01-11 08:15:00
12:35 AM,24.8,17.6,74,30.31,10.0,Calm,Calm,-,N/A,,Clear,0,2014-01-11 08:35:00
12:55 AM,24.8,17.6,74,30.30,10.0,Calm,Calm,-,N/A,,Clear,0,2014-01-11 08:55:00
1:15 AM,23.0,17.6,80,30.30,10.0,Calm,Calm,-,N/A,,Clear,0,2014-01-11 09:15:00
1:35 AM,23.0,17.6,80,30.30,10.0,Calm,Calm,-,N/A,,Clear,0,2014-01-11 09:35:00
1:55 AM,23.0,15.8,74,30.30,10.0,Calm,Calm,-,N/A,,Clear,0,2014-01-11 09:55:00
2:15 AM,21.2,15.8,80,30.30,10.0,Calm,Calm,-,N/A,,Clear,0,2014-01-11 10:15:00
2:35 AM,17.6,14.0,86,30.30,10.0,Calm,Calm,-,N/A,,Clear,0,2014-01-11 10:35:00
2:55 AM,17.6,12.2,79,30.29,10.0,Calm,Calm,-,N/A,,Clear,0,2014-01-11 10:55:00
3:15 AM,19.4,12.2,74,30.28,10.0,Calm,Calm,-,N/A,,Clear,0,2014-01-11 11:15:00
3:35 AM,19.4,14.0,80,30.27,10.0,NNW,3.5,-,N/A,,Clear,340,2014-01-11 11:35:00
3:55 AM,19.4,14.0,80,30.26,10.0,North,3.5,-,N/A,,Clear,350,2014-01-11 11:55:00
4:15 AM,21.2,15.8,80,30.26,10.0,Calm,Calm,-,N/A,,Clear,0,2014-01-11 12:15:00
4:35 AM,17.6,14.0,86,30.26,10.0,Calm,Calm,-,N/A,,Clear,0,2014-01-11 12:35:00
4:55 AM,17.6,14.0,86,30.26,10.0,Calm,Calm,-,N/A,,Clear,0,2014-01-11 12:55:00
5:15 AM,14.0,10.4,86,30.26,10.0,North,5.8,-,N/A,,Clear,10,2014-01-11 13:15:00
5:35 AM,17.6,14.0,86,30.27,10.0,NW,4.6,-,N/A,,Clear,310,2014-01-11 13:35:00
5:55 AM,15.8,12.2,86,30.27,10.0,North,4.6,-,N/A,,Clear,350,2014-01-11 13:55:00
6:15 AM,17.6,12.2,79,30.26,10.0,Calm,Calm,-,N/A,,Clear,0,2014-01-11 14:15:00
6:35 AM,19.4,14.0,80,30.25,10.0,NNE,4.6,-,N/A,,Clear,30,2014-01-11 14:35:00
6:55 AM,17.6,14.0,86,30.25,10.0,North,3.5,-,N/A,,Clear,350,2014-01-11 14:55:00
7:15 AM,23.0,15.8,74,30.25,10.0,East,3.5,-,N/A,,Clear,100,2014-01-11 15:15:00
7:35 AM,28.4,17.6,64,30.24,10.0,SSE,4.6,-,N/A,,Clear,150,2014-01-11 15:35:00
7:55 AM,46.4,12.2,25,30.23,10.0,WSW,21.9,28.8,N/A,,Clear,250,2014-01-11 15:55:00
8:15 AM,50.0,10.4,20,30.23,10.0,WSW,15.0,31.1,N/A,,Clear,240,2014-01-11 16:15:00
8:35 AM,51.8,8.6,18,30.23,10.0,WSW,17.3,32.2,N/A,,Clear,250,2014-01-11 16:35:00
8:55 AM,53.6,6.8,15,30.23,10.0,West,18.4,33.4,N/A,,Clear,260,2014-01-11 16:55:00
9:15 AM,53.6,6.8,15,30.23,10.0,West,19.6,38.0,N/A,,Clear,260,2014-01-11 17:15:00
9:35 AM,53.6,5.0,14,30.22,10.0,WSW,23.0,33.4,N/A,,Clear,250,2014-01-11 17:35:00
9:55 AM,53.6,5.0,14,30.21,10.0,WSW,24.2,43.7,N/A,,Clear,240,2014-01-11 17:55:00
10:15 AM,55.4,6.8,14,30.20,10.0,SW,29.9,49.5,N/A,,Clear,230,2014-01-11 18:15:00
10:35 AM,55.4,6.8,14,30.20,10.0,WSW,28.8,51.8,N/A,,Clear,250,2014-01-11 18:35:00
10:55 AM,55.4,6.8,14,30.18,10.0,WSW,34.5,49.5,N/A,,Clear,240,2014-01-11 18:55:00
11:15 AM,55.4,6.8,14,30.18,10.0,WSW,38.0,56.4,N/A,,Clear,240,2014-01-11 19:15:00
11:35 AM,53.6,6.8,15,30.17,10.0,WSW,40.3,51.8,N/A,,Clear,240,2014-01-11 19:35:00
11:55 AM,53.6,6.8,15,30.17,10.0,WSW,34.5,57.5,N/A,,Clear,240,2014-01-11 19:55:00
12:15 PM,51.8,5.0,15,30.16,10.0,WSW,35.7,55.2,N/A,,Clear,240,2014-01-11 20:15:00
12:35 PM,50.0,5.0,16,30.16,10.0,WSW,32.2,46.0,N/A,,Clear,250,2014-01-11 20:35:00
12:55 PM,50.0,3.2,15,30.16,10.0,WSW,27.6,52.9,N/A,,Scattered Clouds,240,2014-01-11 20:55:00
1:15 PM,50.0,5.0,16,30.17,10.0,WSW,35.7,49.5,N/A,,Overcast,250,2014-01-11 21:15:00
1:35 PM,48.2,10.4,22,30.17,10.0,West,24.2,35.7,N/A,,Overcast,260,2014-01-11 21:35:00
1:55 PM,46.4,17.6,32,30.17,10.0,West,32.2,48.3,N/A,,Overcast,260,2014-01-11 21:55:00
2:15 PM,44.6,21.2,39,30.17,10.0,West,18.4,34.5,N/A,,Overcast,260,2014-01-11 22:15:00
2:35 PM,44.6,26.6,49,30.17,10.0,WSW,19.6,32.2,N/A,,Overcast,250,2014-01-11 22:35:00
2:55 PM,42.8,28.4,57,30.16,10.0,SW,15.0,43.7,N/A,,Light Drizzle,230,2014-01-11 22:55:00
3:15 PM,42.8,28.4,57,30.16,10.0,SW,23.0,36.8,N/A,,Light Drizzle,220,2014-01-11 23:15:00
3:35 PM,44.6,26.6,49,30.15,10.0,WSW,23.0,34.5,N/A,,Mostly Cloudy,240,2014-01-11 23:35:00
3:55 PM,46.4,23.0,40,30.12,10.0,WSW,18.4,42.6,N/A,,Scattered Clouds,250,2014-01-11 23:55:00
4:15 PM,44.6,23.0,43,30.11,10.0,WSW,31.1,40.3,N/A,,Clear,250,2014-01-12 00:15:00
4:35 PM,44.6,24.8,46,30.11,10.0,WSW,33.4,41.4,N/A,,Clear,250,2014-01-12 00:35:00
4:55 PM,44.6,24.8,46,30.10,10.0,WSW,31.1,44.9,N/A,,Clear,240,2014-01-12 00:55:00
5:15 PM,44.6,21.2,39,30.09,10.0,WSW,28.8,47.2,N/A,,Scattered Clouds,240,2014-01-12 01:15:00
5:35 PM,44.6,19.4,37,30.10,10.0,WSW,28.8,47.2,N/A,,Clear,250,2014-01-12 01:35:00
5:55 PM,42.8,19.4,39,30.12,10.0,WSW,38.0,48.3,N/A,,Clear,250,2014-01-12 01:55:00
6:15 PM,42.8,17.6,36,30.13,10.0,WSW,32.2,46.0,N/A,,Clear,250,2014-01-12 02:15:00
6:35 PM,42.8,15.8,34,30.14,10.0,WSW,32.2,43.7,N/A,,Clear,240,2014-01-12 02:35:00
6:55 PM,41.0,17.6,39,30.14,10.0,WSW,25.3,43.7,N/A,,Clear,250,2014-01-12 02:55:00
7:15 PM,41.0,15.8,36,30.15,10.0,West,25.3,38.0,N/A,,Clear,260,2014-01-12 03:15:00
7:35 PM,41.0,12.2,31,30.14,10.0,WSW,24.2,35.7,N/A,,Clear,250,2014-01-12 03:35:00
7:55 PM,41.0,12.2,31,30.15,10.0,WSW,18.4,34.5,N/A,,Clear,250,2014-01-12 03:55:00
8:15 PM,41.0,14.0,33,30.15,10.0,WSW,20.7,34.5,N/A,,Clear,250,2014-01-12 04:15:00
8:35 PM,41.0,14.0,33,30.15,10.0,West,20.7,27.6,N/A,,Clear,270,2014-01-12 04:35:00
8:55 PM,39.2,15.8,39,30.15,10.0,West,19.6,29.9,N/A,,Clear,270,2014-01-12 04:55:00
9:15 PM,41.0,14.0,33,30.15,10.0,West,18.4,34.5,N/A,,Clear,280,2014-01-12 05:15:00
9:35 PM,41.0,14.0,33,30.15,10.0,West,28.8,39.1,N/A,,Clear,270,2014-01-12 05:35:00
9:55 PM,39.2,14.0,36,30.13,10.0,WSW,18.4,38.0,N/A,,Clear,250,2014-01-12 05:55:00
10:15 PM,42.8,6.8,23,30.07,10.0,SW,23.0,41.4,N/A,,Clear,230,2014-01-12 06:15:00
10:35 PM,37.4,19.4,48,30.12,10.0,North,20.7,26.5,N/A,,Clear,350,2014-01-12 06:35:00
10:55 PM,37.4,21.2,52,30.12,10.0,NNW,17.3,23.0,N/A,,Clear,340,2014-01-12 06:55:00
11:15 PM,37.4,15.8,41,30.14,10.0,NNW,20.7,34.5,N/A,,Clear,340,2014-01-12 07:15:00
11:35 PM,37.4,14.0,38,30.11,10.0,WNW,19.6,29.9,N/A,,Clear,300,2014-01-12 07:35:00
11:55 PM,37.4,8.6,30,30.13,10.0,West,33.4,46.0,N/A,,Clear,270,2014-01-12 07:55:00